Location: Gleizolles
(44.4833°N, 6.7667°E)
Time: 21:02:41
(UTC+00:00)

A-11 Canister half - Pass Details

Date: 04 July 2024
Orbit: 1524 x 1684 km, 47.3° (Epoch: 18 July)

Event Time Altitude Azimuth Distance (km) Brightness Sun altitude
Rises 09:16:00 0° 234° (SW) 4,829 11.4 53.9°
Reaches altitude 10° 09:19:09 10° 232° (SW) 3,823 11.0 54.4°
Maximum altitude 09:28:46 71° 151° (SSE) 1,644 10.9 55.9°
Drops below altitude 10° 09:38:06 10° 70° (ENE) 3,718 11.5 57.4°
Sets 09:41:07 0° 68° (ENE) 4,691 11.8 57.8°
